Regional Weather Roundup
Issued by NWS

Home | Current Version | Previous Version | Text Only | Print | Product List | Glossary On
Versions: 1 2 3 4 5 6 7 8 9 10 11 12 13 14 15 16 17 18 19 20 21 22 23 24 25 26 27 28 29 30 31 32 33 34 35 36 37 38 39 40 41 42 43 44 45 46 47 48 49 50
000
ASUS45 KBOI 210110
RWRID
WEATHER ROUNDUP FOR IDAHO
NATIONAL WEATHER SERVICE BOISE ID
600 PM MST SAT DEC 20 2014

NOTE: "FAIR" INDICATES FEW OR NO CLOUDS BELOW 12000 FEET
WITH NO SIGNIFICANT WEATHER AND/OR OBSTRUCTIONS TO VISIBILITY

IDZ012-014-210200-
SOUTHWEST IDAHO


CITY           SKY/WX    TMP DP  RH WIND       PRES   REMARKS
BOISE          RAIN      41  41 100 SE7       29.94R
CALDWELL       CLOUDY    43  36  75 NE9       29.95S
MOUNTAIN HOME  LGT RAIN  41  39  93 E12       29.97S
$$

IDZ016-017-210200-
SOUTHCENTRAL IDAHO


CITY           SKY/WX    TMP DP  RH WIND       PRES   REMARKS
BURLEY         LGT RAIN  40  35  83 S12       29.96F WCI  33
JEROME         LGT RAIN  41  37  86 S6        29.97F
TWIN FALLS     LGT RAIN  42  37  82 CALM      29.97F
$$

IDZ019>023-210200-
SOUTHEAST IDAHO


CITY           SKY/WX    TMP DP  RH WIND       PRES   REMARKS
IDAHO FALLS    CLOUDY    37  34  89 S10       29.96F WCI  30
POCATELLO      CLOUDY    38  34  85 S13       29.99S WCI  30
REXBURG        CLOUDY    35  34  96 S6        29.96S WCI  30
$$

IDZ006-010-011-018-031-032-210200-
CENTRAL IDAHO MOUNTAINS


CITY           SKY/WX    TMP DP  RH WIND       PRES   REMARKS
MCCALL         LGT SNOW  33  31  92 SE12      29.84R FOG     WCI  24
HAILEY         LGT SNOW  32  32 100 CALM      29.96F
STANLEY          N/A     33  27  78 SE9       29.88F WCI  25
SALMON         CLOUDY    34  28  80 CALM      29.84F
CHALLIS        CLOUDY    31  27  85 CALM      29.86F
$$

IDZ002-004-006-007-026-210200-
NORTHERN IDAHO


CITY           SKY/WX    TMP DP  RH WIND       PRES   REMARKS
LEWISTON       LGT RAIN  42  41  96 SE5       29.74S
LOWELL           N/A     40  39  97 N3        29.82F
COEUR D`ALENE  CLOUDY    39  37  93 S5        29.68F
MULLAN PASS    SNOW      30  27  88 VRB6G17   29.65F VSB 1/2 WCI  24
$$


USA.gov is the U.S. government's official web portal to all federal, state and local government web resources and services.